[[{"header":{"parameterUnit":"m.s-1","parameterCategory":1,"la1":30.2991,"la2":30.254,"lo1":-89.0895,"lo2":-89.0444,"dy":0.0017,"dx":0.0017,"nx":28,"ny":28,"refTime":"2024-06-08T03:00:00:Z","depth":0,"parameterNumber":2,"parameterNumberName":"U-component_of_WINDS"},"data":[0,0,0,0,0,0,0,0,0,0,0,0,0,0,0,0,0,0,0,0,0,0,0,0,0,0,0,0,0,0,0,0,0,0,0,0,0,0,0,0,0,0,0,0,0,0,0,0,0,0,0,0,0,0,0,0,0,0,0.5352,0.5353,0,0.5419,0.542,0.5421,0.5435,0.5434,0.5434,0.5433,0.5502,0.5504,0.5507,0,0,0,0,0,0,0,0,0,0,0,0,0,0.5234,0.5236,0.5352,0.5353,0.5354,0.5419,0.542,0.5421,0.5435,0.5434,0.5434,0.5433,0.5501,0.5504,0.5507,0,0,0,0,0,0,0,0,0,0,0,0,0,0.5291,0.5237,0.5352,0.5369,0.5371,0.5419,0.542,0.5421,0.5435,0.5434,0.5433,0.5433,0.55,0.5504,0.5507,0.5544,0,0,0.5518,0.5519,0,0,0,0,0,0,0,0,0.5288,0.5296,0.5365,0.5367,0.537,0.5418,0.5404,0.5463,0.5435,0.5411,0.5433,0.5432,0.5475,0.548,0.5495,0.5547,0.555,0.5518,0.552,0.5522,0.5523,0,0,0,0,0,0,0,0.5284,0.5293,0.5379,0.5366,0.5369,0.5372,0.5379,0.5415,0.5446,0.5413,0.5414,0.5422,0.5476,0.5491,0.5496,0.5551,0.5518,0.5521,0.5523,0.5525,0.5635,0.5636,0,0,0,0,0,0,0.5277,0.529,0.5377,0.5381,0.5326,0.5375,0.5383,0.5403,0.5446,0.5451,0.5422,0.5422,0.5486,0.5492,0.5499,0.5544,0.5522,0.5525,0.5527,0.5635,0.5636,0.5637,0,0,0,0,0,0,0.5275,0.5285,0.5374,0.5336,0.5347,0.5378,0.54,0.5405,0.542,0.5453,0.5458,0.5432,0.5485,0.5494,0.5532,0.5546,0.5526,0.553,0.5634,0.5635,0.5636,0.5635,0,0,0,0,0,0,0.5271,0.5284,0.5299,0.5336,0.5349,0.5407,0.5401,0.5407,0.5426,0.5427,0.5464,0.5469,0.5485,0.5527,0.5536,0.5551,0.5532,0.5632,0.5634,0.5636,0.5634,0.5636,0.5638,0,0,0,0,0,0.5267,0.5296,0.53,0.531,0.5368,0.5408,0.5415,0.5433,0.5427,0.5442,0.5463,0.5468,0.5543,0.5531,0.5541,0.5557,0.5632,0.5634,0.5636,0.5633,0.5635,0.5638,0,0,0,0,0,0,0.5261,0.5302,0.5306,0.5348,0.5374,0.541,0.543,0.5436,0.5464,0.5464,0.5484,0.5492,0.5529,0.5547,0.5532,0.5594,0.5587,0.5591,0.5581,0.5584,0.5586,0.5581,0.5535,0,0,0,0,0,0.5264,0.5293,0.5327,0.5361,0.5374,0.5399,0.5417,0.5428,0.5456,0.5468,0.5491,0.5518,0.5547,0.5567,0.5596,0.5636,0.5643,0.5652,0.5653,0.5655,0.5659,0.568,0.5683,0.5643,0.5643,0.5643,0,0,0.5272,0.5298,0.5315,0.536,0.5382,0.5411,0.5409,0.544,0.5461,0.5472,0.551,0.5528,0.5559,0.5598,0.5616,0.5614,0.5671,0.5657,0.5658,0.5661,0.5682,0.5686,0.5689,0.5644,0.5644,0.5644,0,0,0.5301,0.5323,0.5354,0.5375,0.5407,0.5424,0.5431,0.5465,0.5477,0.5515,0.5524,0.5549,0.56,0.5621,0.5639,0.5673,0.5679,0.5682,0.5692,0.5713,0.5716,0.5719,0.5731,0.5735,0.5685,0.5685,0.5685,0,0.5307,0.5351,0.5368,0.5398,0.5417,0.5428,0.5458,0.5478,0.5518,0.5531,0.5527,0.559,0.5612,0.5655,0.5663,0.5677,0.5685,0.5678,0.5714,0.5717,0.572,0.5732,0.5736,0.5685,0.5685,0.5685,0.5685,0,0.5356,0.5386,0.5406,0.5444,0.5465,0.5495,0.5516,0.5535,0.5544,0.556,0.5598,0.5624,0.5658,0.5669,0.5678,0.5713,0.571,0.571,0.5704,0.5724,0.5735,0.574,0.5685,0.5685,0.5685,0.5685,0,0,0.5385,0.543,0.5437,0.5454,0.549,0.5513,0.5542,0.5575,0.5591,0.5618,0.5643,0.5684,0.5683,0.5703,0.5714,0.5732,0.5756,0.5729,0.573,0.5734,0.5796,0.5796,0.5801,0.576,0.576,0.5761,0.5793,0,0.5418,0.5471,0.5487,0.5532,0.5559,0.5568,0.5594,0.5618,0.5633,0.5658,0.5675,0.5704,0.5701,0.5713,0.5731,0.575,0.5769,0.5747,0.5783,0.5784,0.5776,0.5807,0.5808,0.5837,0.5798,0.5798,0.5799,0,0.5464,0.5491,0.5539,0.5569,0.5581,0.5604,0.5634,0.5658,0.5685,0.5694,0.5715,0.5724,0.5754,0.5745,0.5787,0.5771,0.5786,0.5797,0.5799,0.5804,0.5793,0.5813,0.5847,0.5851,0.5806,0.5805,0.5805,0,0.5481,0.5528,0.5563,0.5577,0.5613,0.5628,0.5644,0.567,0.5688,0.5714,0.5726,0.5755,0.5771,0.5793,0.5809,0.5801,0.5849,0.5841,0.5858,0.5857,0.5869,0.5868,0.5906,0.5877,0.5877,0.5877,0.5877,0,0.5516,0.5545,0.557,0.5592,0.5623,0.564,0.567,0.5686,0.5709,0.5733,0.5742,0.5764,0.5784,0.5808,0.5821,0.5853,0.586,0.5869,0.5872,0.5868,0.5867,0.5879,0.5878,0.5878,0.5878,0.5878,0.5878,0,0.5541,0.5559,0.5597,0.5627,0.5635,0.5657,0.5683,0.5703,0.5718,0.5748,0.5756,0.5779,0.5808,0.5826,0.5863,0.5871,0.5906,0.5909,0.5897,0.5899,0.5914,0.5913,0.5962,0.5969,0.5935,0.5935,0.5936,0,0.5563,0.5585,0.5617,0.5634,0.5649,0.5676,0.5694,0.571,0.5728,0.5759,0.5775,0.5805,0.5829,0.5875,0.5895,0.5923,0.5926,0.5941,0.593,0.5926,0.5926,0.5925,0.5927,0.5943,0.5944,0.5944,0.5944,0,0.56,0.5607,0.5633,0.5661,0.5682,0.5706,0.5729,0.5741,0.5761,0.5781,0.581,0.5829,0.5866,0.5895,0.5924,0.594,0.5945,0.5947,0.5952,0.595,0.5942,0.5946,0.5903,0.5946,0.5946,0.5946,0.5946,0.5946,0.5624,0.5644,0.5669,0.5697,0.5715,0.5736,0.5756,0.5773,0.5798,0.5829,0.5836,0.5867,0.5891,0.5931,0.5947,0.5971,0.5969,0.5976,0.5978,0.598,0.5981,0.5937,0.5976,0.5976,0.5976,0.5976,0.5976,0,0.5662,0.5678,0.5704,0.5735,0.5756,0.5758,0.5783,0.5801,0.5828,0.585,0.5873,0.5906,0.5934,0.5955,0.5983,0.5998,0.6001,0.6004,0.6004,0.6007,0.5981,0.5974,0.6001,0.6001,0.6001,0.6001,0.6001,0.6001,0.5685,0.5717,0.5727,0.5769,0.5784,0.5814,0.5828,0.5847,0.5864,0.5901,0.5923,0.5937,0.5958,0.5987,0.6012,0.6017,0.6027,0.6031,0.6037,0.6012,0.6009,0.6007,0.6,0.6033,0.6033,0.6061,0.6061,0.6062]},{"header":{"parameterUnit":"m.s-1","parameterCategory":1,"la1":30.2991,"la2":30.254,"lo1":-89.0895,"lo2":-89.0444,"dy":0.0017,"dx":0.0017,"nx":28,"ny":28,"refTime":"2024-06-08T03:00:00:Z","depth":0,"parameterNumber":3,"parameterNumberName":"V-component_of_WINDS"},"data":[0,0,0,0,0,0,0,0,0,0,0,0,0,0,0,0,0,0,0,0,0,0,0,0,0,0,0,0,0,0,0,0,0,0,0,0,0,0,0,0,0,0,0,0,0,0,0,0,0,0,0,0,0,0,0,0,0,0,4.6572,4.6572,0,4.6598,4.6598,4.6598,4.6539,4.6537,4.6535,4.6533,4.6556,4.6558,4.6561,0,0,0,0,0,0,0,0,0,0,0,0,0,4.6468,4.647,4.6572,4.6572,4.6573,4.6598,4.6598,4.6598,4.6539,4.6537,4.6534,4.6532,4.6555,4.6558,4.6561,0,0,0,0,0,0,0,0,0,0,0,0,0,4.6505,4.6471,4.6572,4.6546,4.6544,4.6597,4.6598,4.6598,4.654,4.6537,4.6534,4.6531,4.6554,4.6558,4.6561,4.664,0,0,4.6572,4.6574,0,0,0,0,0,0,0,0,4.6503,4.6509,4.655,4.6548,4.6546,4.6562,4.6569,4.6612,4.654,4.6541,4.6533,4.653,4.656,4.6563,4.6574,4.6641,4.6642,4.6572,4.6575,4.6576,4.6577,0,0,0,0,0,0,0,4.6501,4.6507,4.6582,4.655,4.6548,4.6532,4.6534,4.6577,4.6566,4.6541,4.6537,4.6541,4.6559,4.6571,4.6574,4.6642,4.6572,4.6576,4.6578,4.6579,4.6774,4.6776,0,0,0,0,0,0,4.6502,4.6506,4.6581,4.6583,4.6517,4.6536,4.6539,4.656,4.6565,4.6564,4.6543,4.6538,4.6566,4.657,4.6575,4.6666,4.6576,4.6579,4.6581,4.6771,4.6774,4.6778,0,0,0,0,0,0,4.65,4.6509,4.658,4.6543,4.6551,4.6541,4.6565,4.6562,4.6574,4.6567,4.6564,4.6558,4.6564,4.657,4.6624,4.6666,4.6581,4.6584,4.6767,4.6772,4.6776,4.685,0,0,0,0,0,0,4.6497,4.6509,4.6539,4.6544,4.6553,4.663,4.6568,4.6564,4.658,4.6574,4.658,4.6579,4.6562,4.6619,4.6628,4.6669,4.6587,4.6763,4.6769,4.6774,4.6844,4.6857,4.6868,0,0,0,0,0,4.6493,4.6559,4.6541,4.6551,4.6591,4.6633,4.6638,4.6619,4.6584,4.6614,4.661,4.6578,4.666,4.6625,4.6634,4.6678,4.676,4.6767,4.6774,4.6839,4.6854,4.6867,0,0,0,0,0,0,4.6557,4.6559,4.6539,4.6608,4.6621,4.6623,4.666,4.6636,4.6658,4.665,4.6625,4.6627,4.6686,4.6687,4.6648,4.6753,4.6704,4.6713,4.675,4.6765,4.6777,4.6775,4.659,0,0,0,0,0,4.658,4.6615,4.6613,4.6674,4.6682,4.667,4.6687,4.6672,4.6683,4.6688,4.6688,4.6699,4.6727,4.6746,4.6772,4.6844,4.6844,4.6878,4.689,4.69,4.6908,4.6945,4.696,4.68,4.68,4.68,0,0,4.6626,4.6631,4.6654,4.6687,4.6695,4.6731,4.6675,4.6715,4.674,4.6694,4.6745,4.6745,4.6756,4.682,4.6848,4.6823,4.6952,4.6909,4.6917,4.6919,4.6954,4.6969,4.6983,4.6805,4.6804,4.6803,0,0,4.6727,4.6736,4.6787,4.6796,4.681,4.6801,4.6814,4.6819,4.6818,4.687,4.6835,4.6865,4.6914,4.6923,4.6934,4.704,4.7011,4.7049,4.7111,4.7147,4.716,4.7171,4.7208,4.7221,4.7057,4.7057,4.7057,0,4.6783,4.6836,4.6816,4.6858,4.6873,4.6834,4.6885,4.6895,4.6915,4.6926,4.6898,4.6959,4.6964,4.7029,4.7055,4.7065,4.7077,4.7048,4.716,4.7171,4.7181,4.7216,4.723,4.7062,4.7061,4.7061,4.706,0,4.6902,4.694,4.6979,4.7002,4.7021,4.7068,4.7053,4.7075,4.7058,4.7052,4.7105,4.7109,4.7135,4.7149,4.7132,4.7212,4.7196,4.7165,4.7114,4.7201,4.7233,4.7246,4.7068,4.7066,4.7065,4.7064,0,0,4.7044,4.7055,4.707,4.7079,4.7091,4.7119,4.7164,4.719,4.7209,4.7224,4.726,4.7303,4.7274,4.7287,4.727,4.7303,4.7385,4.7268,4.7267,4.7289,4.7472,4.7494,4.751,4.7367,4.7369,4.7371,4.747,0,4.7144,4.7222,4.7205,4.728,4.7314,4.7277,4.7316,4.7327,4.7323,4.7349,4.7344,4.7375,4.7336,4.7343,4.7373,4.7369,4.7422,4.7362,4.7398,4.74,4.7396,4.7527,4.7551,4.7645,4.7483,4.7485,4.7487,0,4.7271,4.7293,4.7372,4.7378,4.7392,4.7427,4.7449,4.7476,4.7487,4.7482,4.7497,4.7474,4.7516,4.7467,4.7524,4.7484,4.7498,4.7498,4.7501,4.7503,4.7448,4.7532,4.7674,4.7688,4.7506,4.7505,4.7503,0,4.7366,4.7414,4.7468,4.7477,4.7486,4.7512,4.7516,4.7525,4.7541,4.7561,4.7571,4.7595,4.7608,4.7626,4.761,4.7576,4.767,4.7619,4.7666,4.7666,4.7686,4.7685,4.7832,4.7697,4.7697,4.7697,4.7697,0,4.7478,4.7528,4.7511,4.7543,4.7598,4.7578,4.7631,4.7631,4.7639,4.7671,4.764,4.767,4.7648,4.7675,4.7663,4.7712,4.7718,4.7714,4.771,4.7716,4.7717,4.7724,4.7717,4.77,4.77,4.7699,4.7698,0,4.7593,4.7583,4.7639,4.7643,4.7645,4.7685,4.7688,4.7718,4.7712,4.7752,4.776,4.7751,4.7781,4.7768,4.78,4.7791,4.7854,4.7842,4.7851,4.7847,4.7894,4.789,4.805,4.807,4.7924,4.7925,4.7926,0,4.7665,4.7702,4.7711,4.773,4.7738,4.7769,4.7786,4.7768,4.7787,4.7802,4.783,4.7859,4.788,4.7931,4.7926,4.7951,4.7938,4.7993,4.7941,4.7946,4.7938,4.7935,4.7938,4.8003,4.8004,4.8006,4.8007,0,4.7793,4.7787,4.7814,4.7839,4.7861,4.7879,4.7895,4.7912,4.7894,4.7917,4.7949,4.7966,4.7999,4.8027,4.8049,4.8052,4.8026,4.8023,4.8035,4.8041,4.8045,4.8043,4.7878,4.8019,4.8018,4.8017,4.8017,4.8016,4.7888,4.7919,4.7931,4.7961,4.7971,4.7987,4.8015,4.8013,4.804,4.8066,4.8054,4.809,4.81,4.8126,4.8133,4.8161,4.8139,4.8156,4.816,4.8165,4.8171,4.8041,4.8165,4.8164,4.8164,4.8163,4.8163,0,4.8014,4.802,4.8048,4.8072,4.8096,4.8071,4.8087,4.8108,4.8142,4.8153,4.8176,4.8212,4.8239,4.8237,4.8262,4.8284,4.8273,4.8291,4.8289,4.829,4.8189,4.8176,4.83,4.83,4.83,4.83,4.83,4.83,4.8083,4.8134,4.8129,4.8186,4.819,4.8227,4.8238,4.8252,4.8261,4.8304,4.8327,4.8325,4.8331,4.8356,4.838,4.8378,4.8388,4.8411,4.8405,4.8311,4.8297,4.8284,4.8272,4.8413,4.8414,4.8503,4.8504,4.8505]}]]